Home   Weather   Leesburg   Past weeks
Flag for USA

Past Weather in Leesburg, Virginia, USA — Yesterday and Last 2 Weeks

Now
73 °F

More clouds than sun.


Feels Like: 75 °F
Forecast: 76 / 59 °F
Wind: 12 mph from Northeast

Location: Leesburg / Godfrey

Current Time: Sep 17, 2019 at 12:36:44 pm

Latest Report: Sep 17, 2019 at 11:55 am


Visibility: 10 mi

Pressure: 30.15 "Hg

Humidity: 74%

Dew Point: 64 °F

Location of LeesburgLocation

Past Weather in Leesburg — Graph

°F

Leesburg Temperature Yesterday

Maximum temperature yesterday: 90 °F (at 3:35 pm)
Minimum temperature yesterday: 57 °F (at 6:15 am)
Average temperature yesterday: 75 °F

High & Low Weather Summary for the Past Weeks

 TemperatureHumidityPressure
High95 °F (Sep 11, 3:15 pm)100% (Sep 2, 8:15 pm)30.40 "Hg (Sep 2, 8:15 pm)
Low54 °F (Sep 7, 6:15 am)36% (Sep 16, 3:35 pm)29.78 "Hg (Sep 6, 4:35 pm)
Average72 °F76%30.10 "Hg
* Reported Sep 2 11:15 am — Sep 17 11:35 am, Leesburg. Weather by CustomWeather, © 2019

Note: Actual official high and low records may vary slightly from our data, if they occured in-between our weather recording intervals... More about our weather records

Advertising

Leesburg Weather History for the Previous 24 Hours

Scroll right to see more
 ConditionsComfort  
Time TempWeatherWind HumidityBarometerVisibility
11:35 am
Tue, Sep 17
72 °FMostly cloudy.12 mph78%30.15 "Hg10 mi
10:55 am70 °FOvercast.8 mph83%30.15 "Hg10 mi
10:35 am72 °FOvercast.9 mph78%30.15 "Hg10 mi
10:15 am70 °FOvercast.7 mph83%30.15 "Hg10 mi
9:55 am70 °FOvercast.9 mph83%30.14 "Hg10 mi
9:35 am70 °FOvercast.7 mph83%30.14 "Hg10 mi
9:15 am70 °FMostly cloudy.7 mph83%30.13 "Hg10 mi
8:55 am68 °FMostly cloudy.9 mph88%30.12 "Hg10 mi
8:35 am68 °FOvercast.6 mph88%30.11 "Hg10 mi
8:15 am68 °FOvercast.8 mph88%30.10 "Hg10 mi
7:55 am68 °FMore clouds than sun.10 mph88%30.10 "Hg10 mi
7:35 am68 °FMore clouds than sun.9 mph88%30.10 "Hg10 mi
7:15 am68 °FMostly cloudy.8 mph88%30.09 "Hg10 mi
6:55 am68 °FMore clouds than sun.9 mph88%30.08 "Hg10 mi
6:35 am68 °FOvercast.8 mph88%30.07 "Hg10 mi
5:55 am68 °FOvercast.9 mph88%30.06 "Hg10 mi
5:35 am68 °FOvercast.9 mph88%30.05 "Hg10 mi
5:15 am68 °FPassing clouds.7 mph88%30.04 "Hg10 mi
4:55 am70 °FPassing clouds.6 mph83%30.04 "Hg10 mi
4:35 am70 °FPassing clouds.9 mph83%30.04 "Hg10 mi
4:15 am70 °FOvercast.10 mph83%30.04 "Hg10 mi
3:55 am70 °FMostly cloudy.6 mph83%30.04 "Hg10 mi
3:35 am70 °FOvercast.8 mph83%30.04 "Hg10 mi
3:15 am70 °FOvercast.7 mph83%30.04 "Hg10 mi
2:55 am70 °FPartly cloudy.6 mph83%30.04 "Hg10 mi
2:35 am72 °FMostly cloudy.6 mph78%30.04 "Hg10 mi
2:15 am72 °FOvercast.5 mph78%30.04 "Hg10 mi
1:55 am72 °FMostly cloudy.5 mph78%30.04 "Hg10 mi
1:35 am72 °FOvercast.8 mph78%30.05 "Hg10 mi
1:15 am72 °FOvercast.6 mph78%30.04 "Hg10 mi
12:55 am73 °FOvercast.6 mph74%30.04 "Hg10 mi
12:30 am73 °FMostly cloudy.6 mph74%30.04 "Hg10 mi
12:15 am73 °FMostly cloudy.6 mph74%30.04 "Hg10 mi
11:55 pm
Mon, Sep 16
73 °FMostly cloudy.5 mph74%30.04 "Hg10 mi
11:35 pm75 °FMostly cloudy.5 mph69%30.04 "Hg10 mi
11:15 pm75 °FPassing clouds.6 mph69%30.03 "Hg10 mi
10:55 pm77 °FPartly cloudy.6 mph65%30.03 "Hg10 mi
10:35 pm77 °FPassing clouds.7 mph65%30.02 "Hg10 mi
10:15 pm77 °FPassing clouds.5 mph65%30.02 "Hg10 mi
9:55 pm77 °FClear.7 mph65%30.02 "Hg10 mi
9:35 pm79 °FPassing clouds.5 mph61%30.02 "Hg10 mi
9:15 pm79 °FPassing clouds.7 mph61%30.02 "Hg10 mi
8:55 pm79 °FMostly cloudy.5 mph61%30.01 "Hg10 mi
8:15 pm79 °FMostly cloudy.No wind58%29.99 "Hg10 mi
7:55 pm82 °FOvercast.No wind48%29.98 "Hg10 mi
7:35 pm82 °FOvercast.3 mph48%29.98 "Hg10 mi
6:55 pm86 °FSunny.6 mph40%29.97 "Hg10 mi
6:35 pm86 °FSunny.5 mph40%29.97 "Hg10 mi
6:15 pm88 °FSunny.6 mph38%29.97 "Hg10 mi
5:55 pm88 °FSunny.5 mph38%29.96 "Hg10 mi
5:35 pm88 °FScattered clouds.6 mph38%29.96 "Hg10 mi
5:15 pm88 °FScattered clouds.6 mph38%29.97 "Hg10 mi
4:55 pm90 °FSunny.No wind36%29.97 "Hg10 mi
4:35 pm90 °FSunny.3 mph36%29.97 "Hg10 mi
4:15 pm90 °FSunny.5 mph36%29.98 "Hg10 mi
3:55 pm90 °FSunny.5 mph36%29.99 "Hg10 mi
3:35 pm90 °FSunny.8 mph36%30.00 "Hg10 mi
2:55 pm88 °FSunny.No wind40%30.01 "Hg10 mi
2:35 pm88 °FSunny.5 mph43%30.02 "Hg10 mi
2:15 pm88 °FSunny.3 mph43%30.03 "Hg10 mi
1:55 pm88 °FSunny.No wind40%30.04 "Hg10 mi
1:35 pm86 °FSunny.No wind43%30.04 "Hg10 mi
1:15 pm86 °FSunny.No wind46%30.06 "Hg10 mi
12:55 pm84 °FScattered clouds.No wind48%30.06 "Hg10 mi
12:35 pm82 °FPartly sunny.3 mph51%30.07 "HgN/A
12:15 pm82 °FOvercast.3 mph51%30.07 "HgN/A
Weather by CustomWeather, © 2019

See weather overview